Regional Weather Roundup
Issued by NWS San Angelo, TX

Home | Current Version | Previous Version | Text Only | Print | Product List | Glossary On
Versions: 1 2 3 4 5 6 7 8 9 10 11 12 13 14 15 16 17 18 19 20 21 22 23 24 25 26 27 28 29 30 31 32 33 34 35 36 37 38 39 40 41 42 43 44 45 46 47 48 49 50
000
ASUS44 KSJT 241110
RWRSJT
WEST CENTRAL TEXAS REGIONAL WEATHER ROUNDUP
NATIONAL WEATHER SERVICE SAN ANGELO TX
500 AM CST TUE JAN 24 2017

NOTE: "FAIR" INDICATES FEW OR NO CLOUDS BELOW 12,000 FEET WITH NO
SIGNIFICANT WEATHER AND/OR OBSTRUCTIONS TO VISIBILITY.

TXZ049-054-064>066-071>073-076>078-098-099-113-114-127-128-139-140-
154-155-168>170-241200
...LOCATIONS ACROSS WEST CENTRAL TEXAS...

CITY           SKY/WX    TMP DP  RH WIND       PRES   REMARKS
SAN ANGELO     CLOUDY    59  32  36 S17G26    29.64F
ABILENE        CLEAR     58  31  35 S17       29.63F
DYESS AFB      CLEAR     58  34  40 SW23G30   29.59F
JUNCTION       PTCLDY    59  32  36 NW5       29.72R
SWEETWATER     CLEAR     57  32  38 S16       29.63F
BROWNWOOD      NOT AVBL
COLEMAN        CLOUDY    54  30  40 SW7       29.67S
SONORA         PTCLDY    59  30  33 S10       29.75S
OZONA          FAIR      52  32  46 MISG      29.73R
BRADY          NOT AVBL
$$

TEXAS PANHANDLE/OKLAHOMA PANHANDLE

CITY           SKY/WX    TMP DP  RH WIND       PRES   REMARKS
AMARILLO       CLEAR     45  29  53 S18       29.53F WCI  37
BORGER         CLEAR     52  29  41 SW12G24   29.50F
CANADIAN       CLEAR     49  31  50 SW7       29.50F
DALHART        PTCLDY    38  29  70 SW12      29.53R WCI  30
DUMAS          SUNNY     38  28  67 SW13      29.52R WCI  30
GUYMON         NOT AVBL
HEREFORD       SUNNY     44  30  59 SW14      29.56S WCI  37
PAMPA          SUNNY     51  29  43 SW16      29.52F
PERRYTON       CLEAR     47  35  61 SW16      29.48S
$$

SOUTHERN PANHANDLE/SOUTH PLAINS/ROLLING PLAINS

CITY           SKY/WX    TMP DP  RH WIND       PRES   REMARKS
LUBBOCK        PTCLDY    47  33  58 SW9       29.59F
SNYDER         CLEAR     49  34  55 S10       29.62S
CHILDRESS      PTCLDY    50  34  54 S9        29.57S
SEMINOLE       SUNNY     46  32  57 SW10      29.63S
$$

PERMIAN BASIN

CITY           SKY/WX    TMP DP  RH WIND       PRES   REMARKS
MIDLAND        CLEAR     56  32  40 SW10      29.63S
ODESSA         CLEAR     55  31  39 S13       29.64R
WINK           CLEAR     43  34  70 S9        29.63F WCI  38
$$

FAR WEST/SOUTHWEST MOUNTAINS/TRANS PECOS

CITY           SKY/WX    TMP DP  RH WIND       PRES   REMARKS
ALPINE         SUNNY     63  25  23 SW16G24   29.81S
DRYDEN           N/A     49  34  56 N6        29.68F
EL PASO        PTCLDY    53  29  39 SW18G35   29.71R
FORT STOCKTON  CLEAR     56  29  35 S12       29.66F
GUADALUPE PASS CLOUDY    50  24  36 W36G44    29.69F
MARFA          CLOUDY    35  27  72 SE3       29.80F
PECOS          SUNNY     40  33  77 CALM      29.65S
$$

DALLAS/FORT WORTH METROPLEX

CITY           SKY/WX    TMP DP  RH WIND       PRES   REMARKS
DFW AIRPORT    MOCLDY    46  39  76 SE5       29.65F
FTW MEACHAM    MOCLDY    53  35  50 SE7       29.66S
DAL-EXECUTIVE  MOCLDY    50  39  66 SE8       29.67F
GRAND PRAIRIE  MOCLDY    55  35  46 S9        29.69S
ADDISON        NOT AVBL
MESQUITE       PTSUNNY   50  38  63 S10       29.70F
LANCASTER      MOSUNNY   42  37  83 CALM      29.71S
$$

NORTH CENTRAL TEXAS

CITY           SKY/WX    TMP DP  RH WIND       PRES   REMARKS
SHRMAN/DENISON CLOUDY    52  39  60 S10       29.66F
GAINESVILLE    CLOUDY    45  39  79 S8        29.67S
BRIDGEPORT     SUNNY     40  39  95 E3        29.66S
DENTON         CLEAR     46  38  73 SE7       29.66F
WAXAHACHIE     PTSUNNY   50  40  67 SE6       29.70F
GRANBURY       MOSUNNY   51  37  60 NE3       29.67S
$$

WESTERN NORTH TEXAS

CITY           SKY/WX    TMP DP  RH WIND       PRES   REMARKS
WICHITA FALLS  CLEAR     48  37  65 S12       29.58F
VERNON         MOSUNNY   46  34  65 S10       29.58F
BRECKENRIDGE   SUNNY     61  30  31 S15G21    29.62F
COMANCHE       PTCLDY    61  32  34 S13G21    29.66S
$$

CENTRAL AND SOUTH CENTRAL TEXAS

CITY           SKY/WX    TMP DP  RH WIND       PRES   REMARKS
AUSTIN/BERGSTM CLEAR     48  41  76 S5        29.75F
WACO           MOCLDY    56  40  55 S13       29.70F
HILLSBORO      CLOUDY    53  40  61 S14       29.69F
TEMPLE         CLEAR     50  41  71 S13       29.73F
KILLEEN-GRAY   CLEAR     50  37  61 S10       29.69F
FORT HOOD      CLEAR     52  37  57 S9        29.68F
GEORGETOWN     PTCLDY    55  34  44 S15       29.73F
LAGO VISTA     FAIR      58  33  39 S10G17    29.74F
SAN MARCOS     CLEAR     43  37  81 S3        29.77F
NEW BRAUNFELS  CLEAR     46  38  73 W5        29.75F
RANDOLPH AFB   CLEAR     51  39  61 S6        29.76F
SAN ANTONIO    CLEAR     45  38  76 CALM      29.76F
STINSON        CLEAR     46  39  76 N3        29.75F
PLEASANTON     NOT AVBL
LA GRANGE      CLEAR     55  53  92 S7        29.76S
GIDDINGS       SUNNY     52  49  88 S6        29.77F
$$

EAST TEXAS

CITY           SKY/WX    TMP DP  RH WIND       PRES   REMARKS
PARIS          PTCLDY    43  34  70 E12       29.73F WCI  37
CLARKSVILLE    NOT AVBL
TYLER          PTCLDY    52  40  63 S10       29.75F
LONGVIEW       MOCLDY    45  40  82 S6        29.77S
PALESTINE      MOSUNNY   54  44  70 S7        29.78F
NACOGDOCHES    CLEAR     39  36  87 CALM      29.79F
$$

TEXAS HILL COUNTRY AND EDWARDS PLATEAU

CITY           SKY/WX    TMP DP  RH WIND       PRES   REMARKS
LLANO          MOSUNNY   50  36  57 CALM      29.74F
HORSESHOE BAY  FAIR      60  35  40 S5        29.71F
KERRVILLE      CLEAR     53  37  54 SE6       29.75F
FREDERICKSBRG  CLOUDY    57  33  40 SW13G21   29.73F
ROCKSPRINGS    CLOUDY    55  32  41 S13       29.75S
HONDO          CLEAR     46  37  71 NE7       29.75F
UVALDE         SUNNY     46  36  66 NE9       29.74F
DEL RIO        PTCLDY    54  33  45 E13       29.68F
$$

SOUTHEAST TEXAS

CITY           SKY/WX    TMP DP  RH WIND       PRES   REMARKS
COLLEGE STN    CLEAR     51  49  92 S7        29.77F
CALDWELL       NOT AVBL
CROCKETT       SUNNY     48  41  76 CALM      29.82S
BRENHAM        CLEAR     56  53  89 SE3       29.79S
HUNTSVILLE     CLEAR     53  48  83 S6        29.78F
CONROE         CLEAR     40  39  97 CALM      29.80F
HOUSTON BUSH   PTCLDY    51  49  92 SE3       29.80F
HOUSTON HOBBY  PTCLDY    54  52  93 S5        29.81F
PERLAND        CLEAR     58  53  84 S3        29.82F
WHARTON        SUNNY     57  55  92 S7        29.81S
$$

THE UPPER TEXAS COAST

CITY           SKY/WX    TMP DP  RH WIND       PRES   REMARKS
ORANGE         FOG       46  46  97 CALM      29.87S VSB 1/2
PORT ARTHUR    FOG       49  48  97 SE5       29.84F VSB 1/4
GALVESTON      CLEAR     65  60  84 S12       29.83F
ANGLETON       CLEAR     59  57  93 S9        29.81F
BAY CITY       SUNNY     56  56 100 S3        29.81F
$$

TEXAS COASTAL BEND, RIO GRANDE PLAINS DEEP SOUTH TEXAS

CITY           SKY/WX    TMP DP  RH WIND       PRES   REMARKS
VICTORIA       CLEAR     56  53  90 S8        29.79F
BEEVILLE       FAIR      58  58 100 S10       29.77F
ROCKPORT         N/A     65  60  84 S9        29.79F
PORT ARANSAS   SUNNY     65  62  89 S13       29.78F
PORT LAVACA    SUNNY     55  55 100 CALM      29.80F
CORPUS CHRISTI CLEAR     60  57  89 S13       29.77F
KINGSVILLE NAS CLEAR     59  58  96 S12       29.77F
COTULLA        CLEAR     52  36  54 SE8       29.73F
LAREDO         CLEAR     59  43  55 SE14      29.73F
BROWNSVILLE    CLEAR     63  60  90 S9        29.82F
PORT ISABEL    CLEAR     63  60  90 S9        29.80F
HEBBRONVILLE   SUNNY     51  48  87 S8        29.76S
MCALLEN        CLEAR     62  54  74 SE12      29.79F
WESLACO        CLEAR     60  56  88 S10G17    29.79F
FALFURRIAS     SUNNY     51  50  94 SE6       29.77F
EDINBURG       SUNNY     62  56  82 S9        29.78F
$$




USA.gov is the U.S. government's official web portal to all federal, state and local government web resources and services.